P/2007 SA24 ( Lemmon )

Japanese version
Home page
Updated on May 2, 2025

---------------------------------------------------------------------

* Profile

Discovery Date September 25, 2007
Magnitude 20.6 mag
Discoverer Mt. Lemmon

* Orbital Elements

                    Epoch = 2007 Apr. 10.0 TT
     T = 2007 Mar. 30.34381 TT        Peri. = 108.78028
     e = 0.5688950                    Node  = 233.50350 2000.0
     q = 2.6946916 AU                 Incl. =  17.11015
       a =  6.2506625 AU   n = 0.06306886   P =  15.63 years

* Magnitudes Graph

        m1 = 13.0 + 5 log d + 10.0 log r(t - 250)

---------------------------------------------------------------------

The orbital elements are printed on CBET 5548.
The magnitudes graphs are made with Comet for Windows.

---------------------------------------------------------------------

Copyright(C) Seiichi Yoshida (comet@aerith.net). All rights reserved.